Weather History for Tallahassee, FL

Change the Weather History Date:

Sunday, August 4, 2013

  Actual Average Record
Temperature  
Mean Temperature 87 °F 82 °F  
Max Temperature 97 °F 92 °F 102 °F (1931)
Min Temperature 76 °F 72 °F 61 °F (1896)
Degree Days  
Heating Degree Days 0    
Month to date heating degree days 0  
Since 1 June heating degree days 0  
Since 1 July heating degree days 0  
Cooling Degree Days 22    
Month to date cooling degree days 76  
Year to date cooling degree days 1561  
Since 1 June cooling degree days 1099  
Growing Degree Days 36 (Base 50)    
Moisture  
Dew Point 73 °F    
Average Humidity 66    
Maximum Humidity 94    
Minimum Humidity 38    
Precipitation  
Precipitation T in 0.26 in 2.33 in (2000)
Month to date precipitation T 1.06  
Year to date precipitation 44.67 37.62  
Sea Level Pressure  
Sea Level Pressure 30.02 in    
Wind  
Wind Speed 5 mph (NW)    
Max Wind Speed 13 mph    
Max Gust Speed 17 mph    
Visibility 9 miles    
Events Fog    
T = Trace of Precipitation, MM = Missing Value Source: NWS Daily Summary

Daily Weather History Graph

Daily Weather History Graph

Search for Another Location

Airport:

Trip Planner

Search our weather history database for the weather conditions in past years. The results will help you decide how hot, cold, wet, or windy it might be!

Date:

Astronomy

Aug. 04, 2013 Rise Set
Actual Time 6:57 AM EDT 8:28 PM EDT
Civil Twilight 6:31 AM EDT 8:54 PM EDT
Nautical Twilight 6:00 AM EDT 9:25 PM EDT
Astronomical Twilight 5:28 AM EDT 9:57 PM EDT
Moon 4:59 AM EDT (8/4) 6:51 PM EDT (8/4)
Length of Visible Light 14h 22m
Length of Day
13h 31m
Waning Crescent, 5% of the Moon is Illuminated
Aug 4
Waning Crescent
Aug 6
New
Aug 14
First Quarter
Aug 20
Full
Aug 28
Last Quarter

Hourly Weather History & Observations

Time (EDT) Temp. Heat Index Dew Point Humidity Pressure Visibility Wind Dir Wind Speed Gust Speed Precip Events Conditions
12:53 AM 78.1 °F - 73.9 °F 87% 30.06 in 10.0 mi Calm Calm - N/A   Clear
1:53 AM 78.1 °F - 73.9 °F 87% 30.05 in 10.0 mi Calm Calm - N/A   Clear
2:53 AM 78.1 °F - 73.9 °F 87% 30.04 in 10.0 mi Calm Calm - N/A   Clear
3:26 AM 75.2 °F - 73.4 °F 94% 30.03 in 9.0 mi South 3.5 mph - N/A   Mostly Cloudy
3:35 AM 77.0 °F - 73.4 °F 89% 30.03 in 9.0 mi Calm Calm - N/A   Scattered Clouds
3:50 AM 77.0 °F - 73.4 °F 89% 30.03 in 10.0 mi Calm Calm - N/A   Mostly Cloudy
3:53 AM 77.0 °F - 73.9 °F 90% 30.03 in 9.0 mi Calm Calm - N/A   Mostly Cloudy
4:12 AM 77.0 °F - 73.4 °F 89% 30.03 in 9.0 mi Calm Calm - N/A   Scattered Clouds
4:53 AM 75.9 °F - 73.0 °F 91% 30.02 in 8.0 mi Calm Calm - N/A   Clear
5:53 AM 77.0 °F - 73.9 °F 90% 30.02 in 9.0 mi West 3.5 mph - N/A Fog Patches of Fog
6:53 AM 77.0 °F - 73.9 °F 90% 30.04 in 6.0 mi NW 3.5 mph - N/A   Clear
7:10 AM 77.0 °F - 73.4 °F 89% 30.03 in 6.0 mi Calm Calm - N/A   Scattered Clouds
7:19 AM 77.0 °F - 73.4 °F 89% 30.03 in 6.0 mi Calm Calm - N/A   Mostly Cloudy
7:53 AM 78.1 °F - 75.0 °F 90% 30.04 in 6.0 mi Calm Calm - N/A   Mostly Cloudy
8:26 AM 78.8 °F - 75.2 °F 89% 30.05 in 6.0 mi Calm Calm - N/A   Scattered Clouds
8:53 AM 81.0 °F 87.9 °F 77.0 °F 88% 30.05 in 6.0 mi West 4.6 mph - N/A   Partly Cloudy
9:53 AM 86.0 °F 96.0 °F 75.9 °F 72% 30.06 in 10.0 mi West 8.1 mph - N/A   Partly Cloudy
10:53 AM 88.0 °F 96.5 °F 73.9 °F 63% 30.06 in 10.0 mi WNW 4.6 mph - N/A   Scattered Clouds
11:53 AM 91.9 °F 99.5 °F 72.0 °F 52% 30.05 in 10.0 mi West 10.4 mph - N/A   Scattered Clouds
12:12 PM 91.4 °F 98.4 °F 71.6 °F 52% 30.05 in 10.0 mi WNW 5.8 mph - N/A   Partly Cloudy
12:53 PM 91.9 °F 96.9 °F 69.1 °F 47% 30.04 in 10.0 mi WNW 5.8 mph 17.3 mph N/A   Mostly Cloudy
1:53 PM 93.0 °F 97.9 °F 69.1 °F 45% 30.02 in 10.0 mi NNW 8.1 mph - N/A   Mostly Cloudy
2:53 PM 95.0 °F 99.5 °F 68.0 °F 41% 29.99 in 10.0 mi Variable 6.9 mph - N/A   Scattered Clouds
3:53 PM 95.0 °F 99.0 °F 66.9 °F 40% 29.97 in 10.0 mi WNW 5.8 mph - N/A   Scattered Clouds
4:53 PM 97.0 °F 100.4 °F 66.0 °F 36% 29.96 in 10.0 mi NW 8.1 mph - N/A   Partly Cloudy
5:53 PM 95.0 °F 99.0 °F 66.9 °F 40% 29.95 in 10.0 mi NNW 6.9 mph - N/A   Partly Cloudy
6:53 PM 91.9 °F 97.4 °F 70.0 °F 48% 29.96 in 10.0 mi NW 4.6 mph - N/A   Partly Cloudy
7:53 PM 89.1 °F 98.0 °F 73.9 °F 61% 29.97 in 10.0 mi NNE 4.6 mph - N/A   Partly Cloudy
8:53 PM 88.0 °F 96.5 °F 73.9 °F 63% 29.98 in 10.0 mi North 5.8 mph - N/A   Scattered Clouds
9:53 PM 84.0 °F 90.2 °F 73.0 °F 69% 30.01 in 10.0 mi NW 5.8 mph - N/A   Scattered Clouds
10:53 PM 82.0 °F 87.4 °F 73.0 °F 74% 30.02 in 10.0 mi NW 6.9 mph - 0.00 in   Clear
11:53 PM 81.0 °F 84.9 °F 71.1 °F 72% 30.01 in 10.0 mi North 3.5 mph - N/A   Clear